FW7690 Weather Reports


time (UTC)temp
C
wind
direction
speed
KPH
gust
KPH
rain 1hr
cm
rain 24hr
cm
rain mn
cm
humidity
%
barometer
mb
20260505041542 13 92 11.3 17.7 0.94 1.45 1.45 96 1012.0
20260505041033 13 63 1.6 14.5 0.94 1.45 1.45 96 1012.3
20260505040532 13 71 6.4 14.5 0.94 1.42 1.42 96 1012.1
20260505040047 13 86 4.8 11.3 0.89 1.40 1.40 96 1012.1
20260505035532 13 157 3.2 12.9 0.84 1.35 1.35 96 1012.1
20260505035030 13 0 1.6 17.7 0.84 1.32 1.32 95 1012.1
20260505034549 13 70 8.0 19.3 0.76 1.27 1.27 95 1012.0
20260505034030 13 61 9.7 19.3 0.66 1.17 1.17 95 1012.3
20260505033531 13 70 8.0 19.3 0.46 0.97 0.97 95 1012.6
20260505033046 13 75 9.7 19.3 0.25 0.74 0.74 95 1012.7
20260505032532 13 75 8.0 14.5 0.15 0.64 0.64 95 1012.8
20260505032030 13 68 6.4 17.7 0.03 0.51 0.51 95 1013.0
20260505031549 13 100 8.0 17.7 0.03 0.48 0.48 95 1012.8
20260505031034 13 121 8.0 20.9 0.03 0.48 0.48 95 1013.0
20260505030530 13 93 11.3 24.1 0.03 0.48 0.48 95 1012.9
20260505030049 13 107 12.9 24.1 0.03 0.48 0.48 95 1013.1
20260505025533 13 80 14.5 24.1 0.03 0.48 0.48 95 1013.2
20260505025034 13 71 11.3 24.1 0.05 0.48 0.48 95 1013.3
20260505024552 13 63 9.7 24.1 0.05 0.48 0.48 95 1013.4
20260505024030 13 66 8.0 25.7 0.05 0.48 0.48 95 1013.3
20260505023533 13 65 11.3 25.7 0.05 0.48 0.48 95 1013.5
20260505023051 13 105 9.7 22.5 0.03 0.46 0.46 95 1013.6
20260505022532 13 74 11.3 20.9 0.05 0.46 0.46 95 1013.5
20260505022032 13 63 8.0 14.5 0.05 0.46 0.46 95 1013.6
20260505021546 13 59 8.0 19.3 0.05 0.46 0.46 95 1013.7
20260505021030 13 75 9.7 19.3 0.05 0.46 0.46 95 1013.8
20260505020532 13 63 8.0 19.3 0.08 0.46 0.46 95 1013.7
20260505020048 13 98 6.4 20.9 0.08 0.46 0.46 95 1013.8
20260505015531 13 89 8.0 20.9 0.10 0.46 0.46 95 1013.9
20260505015032 13 58 9.7 16.1 0.10 0.43 0.43 95 1013.9
20260505014551 13 77 8.0 14.5 0.10 0.43 0.43 95 1013.9
20260505014033 13 40 8.0 22.5 0.13 0.43 0.43 95 1014.0
20260505013531 13 51 11.3 22.5 0.15 0.43 0.43 95 1014.0
20260505013043 13 92 11.3 20.9 0.18 0.43 0.43 95 1014.0
20260505012532 13 67 8.0 20.9 0.18 0.41 0.41 95 1014.1
20260505012030 13 113 4.8 14.5 0.18 0.41 0.41 95 1014.2
20260505011551 13 66 0.0 9.7 0.18 0.38 0.38 95 1014.2
20260505011034 13 0 1.6 4.8 0.18 0.36 0.36 95 1014.4
20260505010530 13 101 0.0 6.4 0.20 0.36 0.36 95 1014.4
20260505010107 13 115 3.2 11.3 0.20 0.36 0.36 95 1014.5
20260505005532 13 119 4.8 11.3 0.20 0.33 0.33 94 1014.7
20260505005031 13 0 1.6 6.4 0.20 0.30 0.30 94 1014.7
20260505004544 13 169 0.0 4.8 0.23 0.30 0.30 94 1014.6
20260505004030 13 0 0.0 8.0 0.25 0.28 0.28 94 1014.7
20260505003530 13 72 1.6 8.0 0.25 0.28 0.28 93 1014.9
20260505003046 13 53 1.6 8.0 0.25 0.25 0.25 93 1014.9
20260505002530 13 124 0.0 8.0 0.23 0.23 0.23 92 1014.9
20260505002032 13 94 1.6 11.3 0.20 0.20 0.20 91 1015.1
20260505001545 14 0 1.6 11.3 0.18 0.18 0.18 90 1015.2
20260505001031 14 123 3.2 11.3 0.18 0.18 0.18 88 1015.3
20260505000533 14 86 4.8 11.3 0.15 0.15 0.15 87 1015.4
20260505000049 15 129 3.2 11.3 0.13 0.13 0.13 86 1015.5
20260504235534 15 102 3.2 11.3 0.10 0.10 0.10 86 1015.5
20260504235031 15 125 4.8 11.3 0.08 0.08 0.08 84 1015.6
20260504234543 15 160 3.2 9.7 0.08 0.08 0.08 83 1015.8
20260504234033 15 205 3.2 9.7 0.03 0.03 0.03 81 1015.8
20260504233530 16 161 4.8 11.3 0.00 0.00 0.00 79 1015.7
20260504233044 16 166 3.2 12.9 0.00 0.00 0.00 76 1015.8
20260504232536 17 127 4.8 14.5 0.00 0.00 0.00 74 1015.9
20260504232031 17 131 6.4 14.5 0.00 0.00 0.00 72 1015.8
20260504231545 17 115 4.8 14.5 0.00 0.00 0.00 71 1015.9
20260504231034 17 175 4.8 14.5 0.00 0.00 0.00 71 1015.9
20260504230534 17 80 1.6 4.8 0.00 0.00 0.00 72 1015.9
20260504230047 17 140 0.0 1.6 0.00 0.00 0.00 73 1015.9
20260504225536 17 0 0.0 3.2 0.00 0.00 0.00 72 1016.0
20260504225033 17 81 1.6 6.4 0.00 0.00 0.00 72 1016.1
20260504224546 17 77 1.6 6.4 0.00 0.00 0.00 72 1016.1
20260504224035 17 84 1.6 6.4 0.00 0.00 0.00 72 1016.3
20260504223537 17 75 3.2 6.4 0.00 0.00 0.00 72 1016.2
20260504223059 17 0 3.2 4.8 0.00 0.00 0.00 72 1016.3
20260504222535 17 89 1.6 4.8 0.00 0.00 0.00 72 1016.4
20260504222034 17 77 1.6 4.8 0.00 0.00 0.00 72 1016.5
20260504221556 17 87 1.6 4.8 0.00 0.00 0.00 72 1016.6
20260504221034 17 68 0.0 6.4 0.00 0.00 0.00 72 1016.7
20260504220534 17 53 0.0 9.7 0.00 0.00 0.00 72 1016.8
20260504220046 16 115 3.2 9.7 0.00 0.00 0.00 72 1016.6
20260504215534 16 68 1.6 6.4 0.00 0.00 0.00 72 1016.6
20260504215034 16 69 1.6 6.4 0.00 0.00 0.00 72 1016.6
20260504214554 16 74 1.6 8.0 0.00 0.00 0.00 72 1016.9
20260504214035 16 94 3.2 8.0 0.00 0.00 0.00 72 1016.7
20260504213534 16 75 3.2 8.0 0.00 0.00 0.00 73 1016.7
20260504213103 16 0 1.6 6.4 0.00 0.00 0.00 73 1016.6
20260504212531 16 70 0.0 6.4 0.00 0.00 0.00 74 1016.8
20260504212033 16 75 3.2 6.4 0.00 0.00 0.00 74 1016.8
20260504211550 16 74 1.6 4.8 0.00 0.00 0.00 74 1016.8
20260504211033 16 0 0.0 3.2 0.00 0.00 0.00 75 1016.9
20260504210537 16 0 0.0 1.6 0.00 0.00 0.00 74 1016.8
20260504210050 16 0 0.0 1.6 0.00 0.00 0.00 74 1017.1
20260504205535 16 72 0.0 1.6 0.00 0.00 0.00 74 1017.1
20260504205035 16 0 0.0 3.2 0.00 0.00 0.00 73 1017.1
20260504204553 16 0 0.0 3.2 0.00 0.00 0.00 73 1017.0
20260504204034 16 72 0.0 6.4 0.00 0.00 0.00 74 1016.8
20260504203534 16 96 1.6 6.4 0.00 0.00 0.00 74 1016.8
20260504203051 16 74 1.6 6.4 0.00 0.00 0.00 74 1017.0
20260504202534 16 77 3.2 6.4 0.00 0.00 0.00 74 1017.2
20260504202034 16 70 0.0 4.8 0.00 0.00 0.00 74 1017.1
20260504201545 16 0 0.0 4.8 0.00 0.00 0.00 74 1017.2
20260504201032 16 87 0.0 3.2 0.00 0.00 0.00 74 1017.2
20260504200530 16 0 0.0 3.2 0.00 0.00 0.00 74 1017.1
20260504200047 17 65 0.0 3.2 0.00 0.00 0.00 74 1017.2
20260504195530 17 0 0.0 4.8 0.00 0.00 0.00 74 1017.1
20260504195032 17 0 0.0 4.8 0.00 0.00 0.00 73 1017.3
20260504194554 17 107 1.6 4.8 0.00 0.00 0.00 73 1017.1
20260504194032 17 100 0.0 4.8 0.00 0.00 0.00 73 1017.0
20260504193534 17 58 1.6 4.8 0.00 0.00 0.00 73 1017.1
20260504193045 17 129 0.0 1.6 0.00 0.00 0.00 73 1017.1
20260504192532 17 0 0.0 3.2 0.00 0.00 0.00 72 1016.9
20260504192035 17 0 0.0 6.4 0.00 0.00 0.00 72 1017.0
20260504191545 17 0 0.0 6.4 0.00 0.00 0.00 71 1016.8
20260504191030 17 71 1.6 4.8 0.00 0.00 0.00 72 1017.0
20260504190532 17 0 0.0 3.2 0.00 0.00 0.00 71 1016.8
20260504190049 17 121 0.0 3.2 0.00 0.00 0.00 70 1016.7
20260504185531 17 116 0.0 4.8 0.00 0.00 0.00 70 1016.7
20260504185035 17 141 1.6 6.4 0.00 0.00 0.00 69 1016.8
20260504184547 17 137 0.0 6.4 0.00 0.00 0.00 69 1016.7
20260504184033 17 172 0.0 4.8 0.00 0.00 0.00 69 1016.7
20260504183531 17 0 0.0 3.2 0.00 0.00 0.00 68 1016.7
20260504183044 18 132 1.6 3.2 0.00 0.00 0.00 68 1016.8
20260504182530 18 0 0.0 1.6 0.00 0.00 0.00 68 1016.6
20260504182033 18 0 0.0 3.2 0.00 0.00 0.00 67 1016.7
20260504181556 18 102 0.0 3.2 0.00 0.00 0.00 67 1016.8
20260504181036 18 120 0.0 1.6 0.00 0.00 0.00 67 1016.8
20260504180532 18 0 0.0 4.8 0.00 0.00 0.00 67 1016.7
20260504180048 18 0 0.0 4.8 0.00 0.00 0.00 67 1016.7
20260504175533 18 172 1.6 4.8 0.00 0.00 0.00 67 1016.8
20260504175031 18 155 1.6 4.8 0.00 0.00 0.00 67 1016.7
20260504174547 18 174 1.6 4.8 0.00 0.00 0.00 67 1016.6
20260504174032 18 109 1.6 6.4 0.00 0.00 0.00 67 1016.8
20260504173532 18 141 1.6 6.4 0.00 0.00 0.00 67 1016.9
20260504173048 18 98 3.2 8.0 0.00 0.00 0.00 67 1016.6
20260504172530 18 94 3.2 9.7 0.00 0.00 0.00 67 1016.8
20260504172030 18 168 4.8 9.7 0.00 0.00 0.00 67 1016.8
20260504171547 18 166 4.8 9.7 0.00 0.00 0.00 67 1016.8
20260504171031 18 108 1.6 8.0 0.00 0.00 0.00 68 1016.7
20260504170530 18 225 3.2 9.7 0.00 0.00 0.00 68 1016.7
20260504151033 19 255 9.7 22.5 0.00 0.00 0.00 66 1016.8
20260504150530 19 243 9.7 22.5 0.00 0.00 0.00 66 1016.8
20260504141033 21 232 9.7 16.1 0.00 0.00 0.00 59 1016.7
20260504140531 21 234 3.2 16.1 0.00 0.00 0.00 60 1016.8
20260504130531 21 262 9.7 17.7 0.00 0.00 0.00 61 1017.4
20260504110534 21 105 4.8 14.5 0.00 0.00 0.00 49 1018.3
20260504100534 21 162 4.8 12.9 0.00 0.00 0.00 52 1018.5
20260504081551 17 109 4.8 14.5 0.00 0.00 0.00 68 1018.7
20260504081031 18 157 6.4 12.9 0.00 0.00 0.00 68 1018.9
20260504080532 18 146 8.0 12.9 0.00 0.00 0.00 67 1018.7
20260504080104 17 160 3.2 9.7 0.00 0.00 0.00 68 1018.7
20260504050532 10 0 0.0 0.0 0.00 0.00 0.00 88 1018.5
20260504045531 10 0 0.0 1.6 0.00 0.00 0.00 88 1018.5